Погода в Чазёво

Россия / Пермский край     59°53′08″N   54°32′07″E
темп.,
°C
ветер,
м/с
пор.,
м/с
влажн.,
%
обл.,
%
осадки,
мм/ч
давл.,
гПа
погр.,
м
18 мая, вт
вт1823:00+14зсз397447 0.0 1015371
02:00+13сз288756 0.0 1016323
05:00+11ссз279717 0.1 1018257
08:00+13с3682100 0.0 1019529
11:00+15с346694 0.0 1021967
14:00+20ссв34450 0.0 10211604
17:00+21св34380 0.0 10211710
20:00+19всв24505 0.0 1022123
19 мая, ср
ср1923:00+13в22676 0.0 102313
02:00+11юв22755 0.0 102326
05:00+10ююв228848 0.0 102439
08:00+15ю246716 0.0 1025307
11:00+20ю335111 0.0 10241088
14:00+23ю23388 0.0 10231563
17:00+23ю33345 0.0 10221556
20:00+21ю24497 0.0 1021114
20 мая, чт
чт2023:00+15ю35645 0.0 102271
02:00+13ююз25680 0.0 102280
05:00+12юз24710 0.0 102265
08:00+17юз23550 0.0 1022221
11:00+23ююз23385 0.0 10211077
14:00+25ююз23284 0.0 10201722
17:00+26ю23265 0.0 10191841
20:00+22ююв24440 0.0 101879
21 мая, пт
пт2123:00+16ю23560 0.0 101844
02:00+14ю25610 0.0 101869
05:00+13ю23680 0.0 101850
08:00+18ююз23570 0.0 1018206
11:00+23ю35420 0.0 10171185
14:00+26ю463049 0.0 10152094
17:00+26ю483069 0.0 10132875
20:00+23ю384387 0.0 1012380
22 мая, сб
сб2223:00+17ююз225437 0.0 101234
02:00+14ю311911 0.3 1013329
05:00+13ююз4119456 0.3 1014466
08:00+15ююз5108226 0.0 1014756
11:00+17зюз587150 0.6 10151118
14:00+21зюз584716 0.4 10151865
17:00+18з4760100 0.6 10161180
20:00+16зюз4871100 0.3 1017787